Regional Weather Roundup
Issued by NWS

Home | Current Version | Previous Version | Graphics & Text | Print | Product List | Glossary On
Versions: 1 2 3 4 5 6 7 8 9 10 11 12 13 14 15 16 17 18 19 20 21 22 23 24 25 26 27 28 29 30 31 32 33 34 35 36 37 38 39 40 41 42 43 44 45 46 47 48 49 50
000
ASUS43 KIND 151209
RWRIN

WEATHER ROUNDUP FOR INDIANA
NATIONAL WEATHER SERVICE INDIANAPOLIS IN
800 AM EDT TUE APR 15 2014

NOTE: "FAIR" INDICATES FEW OR NO CLOUDS BELOW 12,000 FEET WITH NO
SIGNIFICANT WEATHER AND/OR OBSTRUCTIONS TO VISIBILITY.

* - STATION DOES NOT REPORT WEATHER SUCH AS PRECIPITATION OR FOG.

+ - STATION NOT QUALITY CONTROLLED BY THE NATIONAL WEATHER SERVICE.
    USE DATA WITH CAUTION...ESPECIALLY DEWPOINT AND RELATIVE
    HUMIDITY OBSERVATIONS.

INZ001>003-010>013-019-020-151300-
NORTHWEST INDIANA

CITY           SKY/WX    TMP DP  RH WIND       PRES   REMARKS
GARY /AIRPORT/ MOCLDY    28  21  74 NW12G17   30.06R WCI  18
LA PORTE +     MOCLDY    27  18  69 N10       30.03R WCI  17
6HR MIN TEMP:  26; 6HR MAX TEMP:  29;

MICHIGAN CITY+ MOCLDY    28  18  64 N13G20    30.04R WCI  18
MONTICELLO +   FLURRIES  28  25  89 NW9       30.02R WCI  19
RENSSELAER +   CLOUDY    30  28  93 CALM      30.06R
VALPARAISO     CLOUDY    28  16  60 N13G21    30.03R WCI  17
6HR MIN TEMP:  27; 6HR MAX TEMP:  29; 6HR PCP:  0.01;


$$

LMZ046-743>745-151300-
SOUTHERN LAKE MICHIGAN

STATION/POSITION TIME  TEMP WIND        PRES
                       AIR  DIR/SP/G
                 (UTC) (F)  (DEG/KT/KT) (MB)
MICHIGAN CITY    1200   29  320/ 22/ 27   N/A

$$

INZ004-005-014>016-021>024-151300-
NORTH CENTRAL INDIANA

CITY           SKY/WX    TMP DP  RH WIND       PRES   REMARKS
ELKHART        PTCLDY    27  16  63 NW9       30.00R WCI  17
GOSHEN         CLOUDY    28  21  75 N10       29.99R WCI  19
6HR MIN TEMP:  26; 6HR MAX TEMP:  30; 6HR PCP: TRACE;

LOGANSPORT +   FLURRIES  28  23  80 N13       30.03R WCI  18
PERU/GRISSOM   MOCLDY    28  22  77 N16       30.01R WCI  16
6HR MIN TEMP:  28; 6HR MAX TEMP:  31; 6HR PCP: TRACE;

ROCHESTER +    MOCLDY    30  25  80 NW8       30.02R WCI  23
SOUTH BEND     CLOUDY    28  15  58 NW13      30.01R WCI  17
6HR MIN TEMP:  27; 6HR MAX TEMP:  29;

WARSAW +       MOCLDY    28  21  74 NW13      29.99R WCI  18

$$

INZ006>009-017-018-025>027-151300-
NORTHEAST INDIANA

CITY           SKY/WX    TMP DP  RH WIND       PRES   REMARKS
ANGOLA *+      SUNNY     25  18  74 NW10      29.94R WCI  15
AUBURN +       SUNNY     28  18  64 NW14G25   29.97R WCI  17
FORT WAYNE     MOSUNNY   27  17  66 NW14      29.98R WCI  16
6HR MIN TEMP:  26; 6HR MAX TEMP:  31; 6HR PCP: TRACE;


$$

INZ028-029-035-036-043>045-051>053-151300-
WEST CENTRAL INDIANA

CITY           SKY/WX    TMP DP  RH WIND       PRES   REMARKS
GREENCASTLE +  PTCLDY    30  25  80 NW10      30.03R WCI  21
LAFAYETTE      MOCLDY    28  26  92 N9        30.05R WCI  19
6HR MIN TEMP:  28; 6HR MAX TEMP:  32; 6HR PCP:  0.01;

TERRE HAUTE    MOCLDY    31  24  75 NW14G20   30.07R WCI  21
6HR MIN TEMP:  31; 6HR MAX TEMP:  34; 6HR PCP: TRACE;


$$

INZ030>032-037>040-046>048-054>057-064-065-151300-
CENTRAL INDIANA

CITY           SKY/WX    TMP DP  RH WIND       PRES   REMARKS
CP ATTERBURY + CLOUDY    32  30  93 N10       30.01R WCI  24
COLUMBUS       CLOUDY    32  30  93 N9        30.00R FOG     WCI  24
GREENWOOD *+   CLOUDY    32  27  80 N9        30.00  WCI  24
INDIANAPOLIS   HAIL      29  26  89 N16       30.01R FOG     WCI  17
6HR MIN TEMP:  29; 6HR MAX TEMP:  32; 6HR PCP:  0.02;

-EAGLE CREEK   CLOUDY    30  25  81 N14       30.01R WCI  19
6HR MIN TEMP:  30; 6HR MAX TEMP:  33;

KOKOMO *+      MOCLDY    28  19  69 N14       30.01R WCI  17
MARION +       CLOUDY    29  20  71 N12       30.00R WCI  19
MT COMFORT *+  MOCLDY    30  25  80 N14       30.00R WCI  20
SHELBYVILLE    CLOUDY    33  25  72 N14       29.99R WCI  23
6HR MIN TEMP:  33; 6HR MAX TEMP:  35; 6HR PCP: TRACE;

ZIONSVILLE +   FLURRIES  30  25  81 N12       30.01R WCI  20
6HR MIN TEMP:  30; 6HR MAX TEMP:  33;


$$

INZ033-034-041-042-049-050-058-059-151300-
EAST CENTRAL INDIANA

CITY           SKY/WX    TMP DP  RH WIND       PRES   REMARKS
MUNCIE         CLEAR     28  20  71 N14       29.98R WCI  17
6HR MIN TEMP:  27; 6HR MAX TEMP:  30; 6HR PCP: TRACE;


$$

INZ060-061-067>069-081>083-085>088-151300-
SOUTHWEST INDIANA

CITY           SKY/WX    TMP DP  RH WIND       PRES   REMARKS
EVANSVILLE     PTCLDY    35  27  72 NW10      30.09R WCI  27
6HR MIN TEMP:  35; 6HR MAX TEMP:  38;

HUNTINGBURG *+ MOCLDY    34  27  75 N12       30.06R WCI  25
6HR MIN TEMP:  34; 6HR MAX TEMP:  39;

WASHINGTON +   CLEAR     32  28  84 NW17      30.07R WCI  21
6HR MIN TEMP:  32; 6HR MAX TEMP:  36;


$$

INZ062-063-066-070>080-084-089>092-151300-
SOUTH CENTRAL AND SOUTHEAST INDIANA

CITY           SKY/WX    TMP DP  RH WIND       PRES   REMARKS
BLOOMINGTON    PTCLDY    31  23  72 VRB7      30.02R WCI  24
6HR MIN TEMP:  31; 6HR MAX TEMP:  35; 6HR PCP:  0.01;

SEYMOUR +      CLOUDY    30  19  64 NW13      30.00  WCI  20

$$




USA.gov is the U.S. government's official web portal to all federal, state and local government web resources and services.